Homer, AK

9:16 AM AKDT on April 24, 2018 (GMT -0800)
Homer

Weather History for PAHO - January, 2012

Change the Weather History Date:

Thursday, January 19, 2012

  Actual Average Record
Temperature  
Mean Temperature 2 °F -  
Max Temperature 10 °F 29 °F 47 °F (1937)
Min Temperature -6 °F 18 °F -12 °F (1952)
Degree Days  
Heating Degree Days 63    
Moisture  
Dew Point -5 °F    
Average Humidity 78    
Maximum Humidity 88    
Minimum Humidity 64    
Precipitation  
Precipitation 0.00 in - - ()
Sea Level Pressure  
Sea Level Pressure 29.78 in    
Wind  
Wind Speed 2 mph (NE)    
Max Wind Speed 10 mph    
Max Gust Speed -    
Visibility 10 miles    
Events      
Averages and records for this station are not official NWS values.
T = Trace of Precipitation, MM = Missing Value Source: NWS Daily Summary

Daily Weather History Graph

Daily Weather History Graph

Search for Another Location

Airport or City:

Astronomy

Jan. 19, 2012 Rise Set
Actual Time 9:44 AM AKST 4:49 PM AKST
Civil Twilight 8:54 AM AKST 5:39 PM AKST
Nautical Twilight 8:01 AM AKST 6:32 PM AKST
Astronomical Twilight 7:12 AM AKST 7:21 PM AKST
Moon 6:54 AM AKST (1/19) 1:08 PM AKST (1/19)
Length of Visible Light 8h 45m
Length of Day
7h 04m
Waning Crescent, 14% of the Moon is Illuminated
Jan 19
Waning Crescent
Jan 22
New
Jan 30
First Quarter
Feb 7
Full
Feb 14
Last Quarter

Hourly Weather History & Observations

Time (AKST) Temp. Windchill Dew Point Humidity Pressure Visibility Wind Dir Wind Speed Gust Speed Precip Events Conditions
12:53 AM -4.0 °F - -7.1 °F 87% 30.05 in 10.0 mi Calm Calm - N/A   Clear
1:53 AM -5.1 °F -15.8 °F -9.9 °F 80% 30.02 in 10.0 mi NE 4.6 mph - N/A   Clear
2:53 AM -2.9 °F - -7.1 °F 82% 30.00 in 10.0 mi Calm Calm - N/A   Clear
3:53 AM -6.0 °F - -11.0 °F 79% 29.97 in 10.0 mi Calm Calm - N/A   Clear
4:53 AM -4.0 °F - -8.0 °F 83% 29.94 in 10.0 mi Calm Calm - N/A   Clear
5:53 AM -4.0 °F -14.6 °F -9.0 °F 79% 29.91 in 10.0 mi NE 4.6 mph - N/A   Clear
6:53 AM -4.0 °F -12.4 °F -9.0 °F 79% 29.88 in 10.0 mi NNE 3.5 mph - N/A   Clear
7:53 AM -6.0 °F -14.7 °F -9.9 °F 83% 29.86 in 10.0 mi NE 3.5 mph - N/A   Clear
8:53 AM -5.1 °F - -9.0 °F 83% 29.83 in 10.0 mi Calm Calm - N/A   Clear
9:53 AM -5.1 °F - -9.0 °F 83% 29.82 in 10.0 mi Calm Calm - N/A   Clear
10:53 AM -0.9 °F - -5.1 °F 83% 29.81 in 10.0 mi Calm Calm - N/A   Clear
11:53 AM 6.1 °F - -2.0 °F 69% 29.80 in 10.0 mi Calm Calm - N/A   Clear
12:53 PM 9.0 °F 2.4 °F -0.9 °F 64% 29.77 in 10.0 mi NE 3.5 mph - N/A   Clear
1:53 PM 6.1 °F -2.8 °F 1.0 °F 80% 29.75 in 10.0 mi ENE 4.6 mph - N/A   Clear
2:53 PM 9.0 °F -0.9 °F -0.9 °F 64% 29.72 in 10.0 mi ENE 5.8 mph - N/A   Clear
3:53 PM 10.0 °F - 3.0 °F 73% 29.70 in 10.0 mi Calm Calm - N/A   Clear
4:53 PM 7.0 °F -3.3 °F 1.0 °F 77% 29.68 in 10.0 mi NNE 5.8 mph - N/A   Clear
5:53 PM 7.0 °F 0.1 °F -0.0 °F 73% 29.65 in 10.0 mi ENE 3.5 mph - N/A   Clear
6:53 PM 1.0 °F -10.3 °F -5.1 °F 75% 29.64 in 10.0 mi North 5.8 mph - N/A   Clear
7:53 PM 3.0 °F - -0.9 °F 84% 29.62 in 10.0 mi Calm Calm - N/A   Clear
8:53 PM -0.0 °F -11.6 °F -2.9 °F 88% 29.62 in 10.0 mi NE 5.8 mph - N/A   Clear
9:53 PM 3.0 °F -12.5 °F -4.0 °F 73% 29.60 in 10.0 mi NE 10.4 mph - N/A   Clear
10:53 PM -0.0 °F -7.9 °F -6.0 °F 76% 29.57 in 10.0 mi Variable 3.5 mph - N/A   Clear
11:53 PM 3.0 °F -8.0 °F -6.0 °F 66% 29.57 in 10.0 mi NE 5.8 mph - N/A   Clear